[Date Prev][Date Next][Thread Prev][Thread Next] - [Date Index][Thread Index][Author Index]
2 Line ISS Keps 3-11
- Subject: [sarex] 2 Line ISS Keps 3-11
- From: "Dave Larsen Ph.D." <doc@xxxxxxxxxxx>
- Date: Mon, 10 Mar 2003 22:16:11 -0800
ISS
1 25544U 98067A 03070.16327999 .00030268 00000-0 37745-3 0 7677
2 25544 51.6352 152.5640 0011719 302.3387 154.5107 15.59546800245717
----
Via the sarex mailing list at AMSAT.ORG courtesy of AMSAT-NA.
To unsubscribe, send "unsubscribe sarex" to Majordomo@amsat.org
AMSAT Home